Location: ?astrovice
(49.6513°N, 14.9287°E)
Time: 23:57:53
(UTC+00:00)

SL-4 R/B - Pass Details

Date: 09 April 2020
Orbit: 428 x 666 km, 51.6° (Epoch: 04 June)

Event Time Altitude Azimuth Distance (km) Brightness Sun altitude
Rises 19:03:28 0° 259° (W) 2,394 6.1 -12.7°
Reaches altitude 10° 19:05:35 10° 261° (W) 1,524 5.1 -13.0°
Maximum altitude 19:08:58 74° 347° (NNW) 454 1.7 -13.4°
Enters shadow 19:11:40 16° 72° (ENE) 1,247 3.5 -13.8°
